This is the latest recevied weather packets stored in our database for station/object SV1TQE-1. If no packets are shown the sender has not sent any weather packets the latest 10 day(s).
| Time | Temp. | Humidity | Pressure | Rain* | Wind** | Luminosity | Snow |
|---|---|---|---|---|---|---|---|
| 1787603815 | 31.11° C | 39% | 1018.8 hPa | - | - | - | - |
| 1787602915 | 31.11° C | 40% | 1018.6 hPa | - | - | - | - |
| 1787602014 | 31.11° C | 40% | 1018.7 hPa | - | - | - | - |
| 1787601117 | 31.67° C | 40% | 1019 hPa | - | - | - | - |
| 1787600213 | 31.67° C | 39% | 1019 hPa | - | - | - | - |
| 1787599313 | 31.67° C | 38% | 1019.1 hPa | - | - | - | - |
| 1787598413 | 31.67° C | 38% | 1019 hPa | - | - | - | - |
| 1787597513 | 31.67° C | 38% | 1018.9 hPa | - | - | - | - |
| 1787596613 | 31.67° C | 38% | 1018.6 hPa | - | - | - | - |
| 1787595712 | 31.67° C | 38% | 1018.4 hPa | - | - | - | - |
| 1787593912 | 32.78° C | 37% | 1018.2 hPa | - | - | - | - |
| 1787593012 | 32.78° C | 36% | 1018 hPa | - | - | - | - |
| 1787592112 | 33.33° C | 36% | 1017.7 hPa | - | - | - | - |
| 1787591212 | 33.33° C | 35% | 1017.7 hPa | - | - | - | - |
| 1787590312 | 33.89° C | 35% | 1017.6 hPa | - | - | - | - |
| 1787589412 | 34.44° C | 34% | 1017.6 hPa | - | - | - | - |
| 1787587611 | 35.56° C | 33% | 1017.4 hPa | - | - | - | - |
| 1787586711 | 35.56° C | 33% | 1017.3 hPa | - | - | - | - |
| 1787585811 | 37.22° C | 32% | 1017.3 hPa | - | - | - | - |
| 1787584914 | 38.89° C | 31% | 1017.4 hPa | - | - | - | - |
| 1787583108 | 40° C | 29% | 1017.5 hPa | - | - | - | - |
| 1787582208 | 40.56° C | 29% | 1017.5 hPa | - | - | - | - |
| 1787581308 | 40.56° C | 29% | 1017.6 hPa | - | - | - | - |
| 1787580408 | 40.56° C | 29% | 1017.5 hPa | - | - | - | - |
| 1787579507 | 40.56° C | 28% | 1017.5 hPa | - | - | - | - |
* Rain since midnight (hover to see other rain measurements)
** Current wind speed in m/s (hover to see current wind gust speed)